Home   Weather   Changchun   Past weeks

Flag for China Past Weather in Changchun, Jilin, China — Yesterday and Last 2 Weeks

Now
7 °F

Light snow. Scattered clouds.


Feels Like: 7 °F
Forecast: -6 / 12 °F
Wind: 1 mph from North

Location: Changchun Airport

Current Time: Jan 18, 2017 at 9:39:22 am

Latest Report: Jan 18, 2017 at 9:00 am


Visibility: 0 mi

Pressure: 30.45 "Hg

Humidity: 78%

Dew Point: 1 °F

Location of ChangchunLocation

Past Weather in Changchun — Graph

°F

Changchun Temperature Yesterday

Maximum temperature yesterday: 18 °F (at 2:00 pm)
Minimum temperature yesterday: -4 °F (at 2:00 am)
Average temperature yesterday: 5 °F

High & Low Weather Summary for the Past Weeks

 TemperatureHumidityPressure
High30 °F (Jan 3, 2:00 pm)85% (Jan 4, 11:00 pm)30.57 "Hg (Jan 4, 11:00 pm)
Low-8 °F (Jan 12, 7:00 am)34% (Jan 9, 2:00 pm)29.89 "Hg (Jan 3, 1:00 pm)
Average7 °F63%30.24 "Hg
* Reported Jan 3 8:00 am — Jan 18 8:00 am, Changchun, Weather by CustomWeather, © 2017

Note: Actual official high and low records may vary slightly from our data, if they occured in-between our weather recording intervals... More about our weather records

Advertising

Changchun Weather History for the Previous 24 Hours

Scroll right to see more
 ConditionsComfort  
Time TempWeatherWind HumidityBarometerVisibility
8:00 am
Wed, Jan 18
3 °FLight snow. Scattered clouds.1 mph78%30.45 "Hg1 mi
7:00 am1 °FLight snow. Overcast.1 mph78%30.42 "Hg1 mi
6:00 am3 °FLight snow. Overcast.1 mph78%30.42 "Hg1 mi
5:00 am5 °FOvercast.3 mph78%30.42 "Hg1 mi
4:00 am5 °FOvercast.1 mph78%30.42 "Hg1 mi
3:00 am3 °FOvercast.No wind78%30.42 "Hg1 mi
2:00 am5 °FOvercast.1 mph72%30.42 "Hg1 mi
1:00 am5 °FOvercast.No wind78%30.39 "Hg1 mi
12:00 am5 °FOvercast.No wind78%30.39 "Hg1 mi
11:00 pm
Tue, Jan 17
5 °FOvercast.1 mph72%30.39 "Hg2 mi
10:00 pm5 °FPassing clouds.1 mph72%30.39 "Hg2 mi
9:00 pm9 °FPassing clouds.1 mph66%30.39 "Hg2 mi
8:00 pm9 °FPassing clouds.1 mph61%30.36 "Hg2 mi
7:00 pm10 °FPassing clouds.3 mph61%30.36 "Hg2 mi
6:00 pm12 °FPassing clouds.1 mph62%30.36 "Hg2 mi
5:00 pm14 °FPassing clouds.1 mph57%30.36 "Hg2 mi
4:00 pm16 °FScattered clouds.3 mph53%30.36 "Hg2 mi
3:00 pm16 °FIce fog.3 mph57%30.36 "Hg2 mi
2:00 pm18 °FIce fog.1 mph49%30.36 "Hg2 mi
1:00 pm16 °FIce fog.1 mph53%30.36 "Hg2 mi
12:00 pm14 °FIce fog.1 mph57%30.36 "Hg1 mi
11:00 am9 °FIce fog.8 mph66%30.42 "Hg1 mi
10:00 am5 °FIce fog.6 mph72%30.42 "Hg1 mi
9:00 am1 °FIce fog.6 mph71%30.42 "Hg1 mi
Weather by CustomWeather, © 2017

See weather overviewHow to use our weather pages